GFSMW_500_rhum_090.txt.gz
RH
18 16 24 45 36 18 16 38 52 63 74 65 46 50 38 87 96 95 96 97 97 93 94 86 84 79 77 71 50 38 31 22 17 19 18 17 18 30 67 39 34 94 36
15 17 72 46 46 18 82 86 59 71 71 79 61 74 39 88 97 97 96 96 96 96 95 95 92 95 92 86 75 61 36 27 18 31 19 22 26 76 89 69 58 82 88
58 24 72 65 68 71 74 72 89 65 62 77 93 88 57 86 96 97 96 96 98 95 96 97 96 95 96 95 95 85 75 52 75 75 43 67 85 83 81 92 95 97 86
37 76 47 80 91 83 98 82 78 84 98 91 94 95 91 89 98 96 97 96 96 96 97 95 97 97 98 100 99 96 96 95 97 98 97 93 96 94 96 96 97 95 95
54 60 99 100 100 89 66 66 75 96 96 97 96 97 100 87 95 96 96 97 96 96 97 97 97 97 97 96 95 97 97 97 95 96 94 97 97 94 92 95 99 95 82
62 87 100 96 87 86 42 49 90 98 95 97 98 97 98 91 95 97 96 96 97 97 97 96 97 97 97 97 96 96 97 96 96 96 97 97 97 90 90 89 94 95 97
97 100 100 94 66 63 54 78 95 96 97 97 97 96 98 97 95 96 97 97 97 97 97 96 97 97 97 97 96 97 97 97 98 96 95 94 92 85 83 77 75 77 93
96 96 99 99 98 98 92 76 96 95 98 97 97 97 96 96 97 96 98 96 97 97 96 96 97 96 96 97 96 97 96 95 96 90 95 83 79 86 82 71 93 79 88
97 99 100 99 98 98 98 97 98 98 97 97 97 96 98 100 98 96 98 97 97 94 96 97 97 93 94 96 97 97 97 96 98 95 100 94 83 98 90 96 89 94 97
99 98 98 97 98 97 98 97 97 96 96 97 96 96 96 100 97 93 97 97 98 97 97 98 98 92 97 97 98 97 98 96 98 99 100 100 100 98 98 95 97 96 97
97 98 98 98 98 92 92 88 86 89 92 92 95 96 96 95 96 95 98 96 96 97 98 97 98 95 95 95 96 96 96 95 99 98 100 96 95 95 98 97 97 97 97
96 97 98 96 80 56 61 79 85 82 79 80 66 61 67 62 61 76 78 84 90 90 94 94 95 96 96 88 84 94 91 91 95 97 97 94 92 92 92 98 94 93 90
78 71 64 50 64 62 58 61 53 55 61 68 63 52 45 40 34 32 34 36 53 57 48 46 51 64 72 70 69 72 76 76 79 80 79 83 82 88 93 97 82 71 74
99 99 86 56 42 34 31 29 30 31 33 40 44 42 38 36 32 31 33 40 51 68 88 93 95 80 77 66 67 64 56 55 56 55 65 76 70 67 54 99 52 50 44
54 48 42 38 35 33 29 24 23 21 19 17 13 12 12 13 15 17 18 20 22 26 28 35 41 47 53 57 61 66 65 59 53 51 48 46 45 44 50 90 55 37 36
27 22 18 10 6 6 7 8 8 9 10 10 9 9 7 8 9 9 7 5 4 5 7 10 15 18 21 22 25 34 43 47 49 50 46 41 40 38 41 36 42 41 38
11 12 14 15 15 14 14 15 14 12 12 11 12 11 10 12 12 13 14 17 16 12 10 8 7 6 5 7 11 18 26 29 31 33 42 46 48 49 48 48 94 53 54
23 24 22 21 20 15 14 13 13 12 12 14 12 13 11 11 14 18 22 23 24 22 16 11 10 8 7 6 6 5 5 6 10 16 24 30 40 48 50 49 52 53 55
16 14 13 12 10 10 11 10 9 8 8 8 8 8 8 11 16 20 31 32 27 21 17 14 13 13 12 12 10 9 8 6 6 6 6 8 14 25 36 36 51 59 61
10 10 10 10 10 9 8 8 8 8 8 8 9 10 12 14 16 25 31 42 45 40 35 35 33 31 28 26 22 21 18 14 11 9 7 7 8 13 17 25 28 30 61
10 10 12 14 14 14 14 14 13 10 11 12 11 12 12 13 20 24 40 58 61 62 63 62 62 62 59 56 50 44 36 28 24 20 18 15 12 10 9 9 12 31 55
13 13 14 18 19 19 18 17 16 14 14 14 14 13 18 26 31 34 34 32 31 34 40 45 50 55 58 56 53 50 45 41 35 30 28 24 22 18 17 12 10 16 19
14 13 18 23 23 21 19 18 15 14 12 10 9 12 20 17 10 8 9 9 9 9 9 9 10 12 16 22 33 45 52 54 50 44 40 34 30 25 22 18 15 13 12
15 17 23 25 25 24 21 18 16 12 9 7 8 6 7 9 11 14 16 18 22 24 25 25 22 16 14 16 18 16 13 14 26 38 51 53 49 43 38 28 20 16 14
17 20 26 28 28 25 21 17 11 7 6 5 6 8 11 15 19 20 17 14 13 12 11 15 23 30 33 34 30 21 19 23 30 24 20 25 34 35 40 40 32 24 21
21 24 30 31 29 24 18 11 6 4 4 6 8 14 17 24 21 23 27 32 30 26 16 10 12 15 23 39 42 38 28 20 21 31 44 41 39 35 32 30 27 27 23

GFSMW_500_rhum_093.txt.gz
RH
18 20 21 38 47 45 41 34 31 26 18 10 9 11 12 11 12 12 10 15 57 88 97 94 94 97 86 97 99 94 91 65 60 51 38 27 21 16 15 14 16 29 49
16 18 20 28 33 29 38 63 49 22 17 10 10 15 25 25 47 29 22 42 97 98 97 95 96 83 95 94 96 98 96 77 69 51 41 38 30 21 16 19 37 29 21
15 25 20 23 21 32 48 61 38 27 22 28 49 31 42 37 40 69 75 94 93 91 96 96 96 94 89 91 97 96 96 86 64 78 85 60 41 34 33 44 73 26 60
29 30 32 32 23 47 63 40 33 27 58 77 46 33 36 64 76 66 96 98 84 97 96 96 97 97 95 95 95 95 94 87 93 93 88 67 86 92 63 85 94 95 98
91 77 53 26 35 58 45 51 56 62 67 53 67 72 68 88 100 76 97 97 96 96 97 95 96 97 97 97 96 96 98 96 96 96 95 95 96 96 93 90 97 92 98
49 83 75 82 74 80 84 87 80 81 66 74 91 97 90 94 89 97 97 98 96 96 97 97 96 95 95 97 96 97 96 98 98 96 96 96 96 94 95 97 95 97 88
96 99 98 84 70 47 52 66 73 79 91 82 97 97 95 96 97 97 97 97 96 96 96 96 97 97 96 97 100 96 95 96 96 97 97 97 97 96 98 95 94 92 94
100 100 100 100 69 93 99 100 61 67 87 96 96 96 98 96 97 97 97 96 97 97 97 97 96 96 97 97 98 97 96 97 97 95 97 99 97 97 94 97 96 94 93
97 98 98 99 99 98 98 98 93 85 94 94 93 97 97 94 92 96 96 97 97 97 96 97 97 97 97 97 96 97 96 97 97 97 97 97 97 98 95 89 92 96 79
98 98 98 98 98 98 97 97 97 98 98 98 97 96 97 95 92 96 97 96 96 97 96 95 97 95 96 97 96 96 96 97 97 96 97 97 97 97 95 94 98 97 98
98 98 98 98 98 98 98 91 87 94 95 96 96 96 96 95 96 97 97 98 97 96 94 95 96 96 96 97 98 98 97 97 96 95 96 98 98 98 97 97 94 98 94
98 98 98 98 94 76 82 71 69 79 70 75 71 60 55 63 84 94 94 95 96 97 99 97 96 97 96 96 96 96 97 97 98 97 98 98 96 97 100 95 98 98 97
78 71 71 71 66 66 46 46 42 41 42 50 58 58 55 50 46 42 47 50 62 74 65 74 75 87 87 92 93 94 96 97 97 94 95 95 94 96 98 99 99 100 95
80 82 76 61 45 36 28 24 22 20 18 16 16 14 14 16 20 24 24 25 25 26 28 31 37 55 68 79 85 84 88 88 90 94 95 87 77 84 94 96 96 96 98
52 40 29 24 15 12 9 7 6 6 7 8 8 8 8 8 8 7 8 8 6 6 6 6 7 10 16 21 30 43 56 65 73 82 92 87 84 75 71 80 85 94 96
9 13 9 10 14 16 16 14 15 14 12 12 10 10 10 8 8 8 9 10 13 15 13 16 16 15 13 10 8 14 16 19 25 33 42 55 69 70 58 56 54 66 76
20 19 17 15 14 13 12 11 11 10 8 7 7 6 6 5 5 5 6 6 7 8 10 15 20 22 21 14 12 11 7 10 19 26 30 31 36 48 54 52 45 38 41
17 15 13 12 12 11 10 8 9 8 8 9 9 8 8 8 8 7 7 7 8 10 10 11 10 15 30 29 18 10 7 6 8 10 18 27 35 43 48 50 50 50 50
13 12 11 11 11 12 12 13 12 11 11 10 9 8 7 7 7 8 7 8 8 8 8 14 39 43 44 40 33 23 16 11 9 8 9 12 19 28 33 37 48 52 55
11 10 9 10 10 11 12 15 15 15 15 13 12 10 9 10 10 9 9 8 9 8 10 17 19 25 33 44 58 46 24 20 15 13 13 12 10 11 15 25 37 44 54
12 12 11 10 10 12 17 19 20 18 16 14 12 11 10 11 10 10 8 8 7 7 6 5 4 5 6 8 12 31 55 58 43 32 28 24 21 16 15 12 14 23 44
12 13 14 14 15 16 19 21 23 23 22 19 15 14 15 13 11 8 6 4 4 4 4 7 10 11 11 12 12 13 15 42 60 63 59 48 37 32 26 22 17 14 13
24 23 21 20 19 19 20 22 25 27 26 22 19 17 14 10 7 5 4 4 5 10 10 11 12 13 15 16 17 20 17 16 26 52 62 63 60 52 46 34 26 22 19
28 30 32 34 35 30 26 26 29 32 28 23 18 14 10 6 4 4 5 10 15 14 16 18 24 26 18 16 13 16 25 28 17 20 36 59 56 56 51 44 35 32 28
26 29 33 38 43 47 43 37 37 36 28 22 14 9 6 4 4 6 13 20 22 22 29 36 44 47 38 27 19 14 12 29 38 22 17 32 47 56 51 50 50 40 36
28 30 33 40 58 70 72 56 45 36 26 16 9 6 4 5 7 12 22 25 25 28 36 47 58 62 64 49 26 19 12 14 36 42 27 18 27 42 48 50 48 53 44

GFSMW_500_rhum_096.txt.gz
RH
8 7 7 9 11 11 18 24 48 58 57 46 41 39 32 17 11 8 8 8 10 11 8 8 10 19 59 77 98 95 73 94 98 96 84 72 54 52 46 31 24 16 14
10 8 8 12 14 13 16 24 34 52 52 43 46 43 33 24 17 9 8 11 12 11 9 10 9 22 75 80 97 77 89 96 94 96 84 82 66 56 54 36 22 16 19
18 13 11 14 16 15 19 23 37 38 41 42 39 39 37 29 17 10 10 20 14 10 58 93 48 62 97 96 94 96 86 92 96 91 95 84 75 69 76 80 58 86 53
66 39 75 48 19 19 22 24 33 34 34 28 29 29 27 22 15 19 23 28 25 25 28 95 98 100 99 92 98 98 96 97 96 96 96 98 96 95 92 86 90 95 79
100 100 72 64 28 38 33 24 22 23 40 46 33 27 24 24 49 27 31 69 65 70 92 98 100 97 96 95 98 96 96 97 97 94 96 94 92 95 98 96 96 95 96
98 83 88 67 40 28 22 21 23 30 32 28 25 30 33 60 66 71 83 86 94 98 97 96 97 98 96 97 97 96 96 97 96 96 97 95 96 94 94 94 87 90 95
82 95 100 87 68 78 81 73 66 74 86 93 94 59 73 96 95 86 80 79 95 96 97 95 98 91 96 97 97 96 96 96 96 96 94 95 96 96 97 94 100 96 98
100 99 100 100 99 70 63 58 60 55 60 66 96 86 96 96 98 96 96 96 96 95 96 96 97 97 97 97 97 97 97 96 97 97 97 97 96 97 97 98 100 95 100
98 98 100 100 90 99 99 99 99 99 99 88 88 88 94 89 82 94 96 98 96 97 97 97 97 97 97 96 96 96 96 97 96 97 97 97 96 96 98 98 98 98 86
98 99 98 99 97 98 98 98 98 98 100 96 91 96 95 98 98 94 93 96 98 97 97 97 97 97 96 96 97 97 97 97 97 98 96 97 97 97 98 98 97 95 92
98 97 98 98 98 98 98 98 98 98 98 97 96 91 93 96 97 94 94 97 98 96 96 96 95 96 97 96 95 96 96 96 96 94 96 96 97 98 98 97 96 98 97
97 97 98 98 98 98 99 96 94 99 93 97 100 96 96 98 99 100 100 98 97 99 98 96 94 95 96 97 97 97 97 97 98 97 96 96 97 96 96 96 97 98 98
100 100 99 95 83 58 47 42 39 36 33 30 31 33 35 34 33 32 31 29 28 27 30 52 72 84 92 92 91 95 95 96 97 96 97 97 97 96 96 97 94 97 98
80 76 58 46 38 31 24 18 12 8 6 6 6 6 6 6 6 6 5 5 6 6 6 6 6 6 5 7 10 16 25 34 50 79 81 79 93 96 97 96 98 96 96
40 36 31 23 12 8 7 8 9 11 12 13 13 14 14 13 12 10 9 9 8 8 8 8 9 9 9 9 8 6 6 9 15 27 38 64 61 60 89 89 97 95 94
9 9 10 12 14 15 16 16 15 13 12 11 10 9 9 8 8 7 6 6 6 6 7 7 8 9 9 9 9 10 13 14 12 9 8 10 23 41 45 60 90 96 94
18 16 13 13 12 12 11 12 14 15 13 12 11 11 10 10 10 9 9 9 8 8 8 8 8 9 9 8 8 8 9 11 14 18 15 12 12 14 21 36 44 47 65
15 14 13 12 11 12 12 12 13 14 16 16 15 14 13 12 10 9 8 8 8 8 8 8 8 8 7 7 8 9 9 9 12 21 27 15 10 18 25 38 41 47 56
13 13 12 12 12 11 12 12 13 15 17 17 16 16 18 18 16 13 12 10 10 10 9 9 8 8 8 8 8 8 8 7 7 6 8 19 29 20 10 16 30 45 54
15 14 14 13 13 14 14 14 15 15 17 18 20 19 18 18 19 18 16 15 13 12 11 10 10 10 7 6 5 4 3 3 3 5 12 10 13 38 23 14 11 21 40
20 20 19 19 18 17 17 18 19 22 23 23 24 24 24 22 20 19 18 17 16 14 12 10 7 6 4 2 2 3 4 6 8 8 9 39 59 47 31 22 19 16 16
19 21 22 24 26 29 31 33 34 36 38 40 41 38 35 33 30 28 28 23 20 15 10 7 4 2 3 5 9 9 8 8 9 13 12 12 56 71 62 44 37 27 22
23 24 24 23 23 24 26 27 30 33 39 48 53 56 57 52 46 42 38 31 17 10 5 3 2 4 9 14 16 18 30 28 19 14 16 18 16 57 74 70 58 45 36
26 27 28 30 31 31 30 30 37 48 54 55 61 71 71 67 55 47 34 16 7 4 2 3 4 8 14 19 29 33 46 51 49 40 25 12 19 18 37 64 70 62 49
53 50 46 43 43 44 48 58 71 78 74 79 81 81 76 63 52 31 14 6 3 3 4 6 8 14 19 24 34 45 51 62 61 51 41 20 14 20 23 28 54 72 68
98 99 98 99 99 98 96 95 98 98 95 90 86 84 75 51 26 12 4 4 4 6 7 9 14 19 22 26 34 39 60 70 65 57 44 25 14 13 28 29 25 46 74

GFSMW_500_rhum_099.txt.gz
RH
8 8 8 6 7 13 20 20 19 15 11 9 12 46 60 51 38 33 31 29 29 27 24 14 9 8 10 11 9 8 9 17 82 96 96 97 97 94 86 97 90 46 37
18 17 15 9 7 9 11 12 12 11 10 10 14 24 57 58 49 44 41 35 30 24 22 13 9 8 10 12 10 8 8 12 52 90 89 94 95 89 99 96 87 64 45
34 31 21 14 9 8 8 8 7 9 16 11 18 26 46 58 56 50 44 39 32 21 13 10 9 10 12 13 12 12 14 31 54 55 65 71 78 97 96 96 95 95 88
68 72 53 24 15 11 13 34 26 26 17 23 25 27 44 52 52 50 47 43 37 30 19 13 13 13 13 10 24 85 90 51 66 79 90 98 98 90 92 95 94 99 89
100 100 100 100 61 50 27 24 17 28 27 25 26 39 38 36 35 33 35 35 33 26 18 16 16 17 33 34 46 96 100 86 99 96 96 97 97 96 96 98 96 94 96
100 100 100 100 99 57 28 23 21 24 28 34 32 31 40 30 26 29 28 26 22 27 32 40 34 54 49 89 94 99 97 98 94 91 96 96 96 97 96 96 96 97 96
98 94 77 62 50 38 37 30 31 31 30 58 84 83 55 51 33 38 46 54 51 73 74 78 83 97 97 98 97 96 96 96 97 97 96 97 97 96 97 95 96 96 97
98 98 100 100 99 93 80 83 83 81 75 77 85 96 97 98 89 79 89 97 81 83 81 78 92 98 96 97 92 97 98 97 98 96 96 96 96 96 96 95 97 97 98
98 100 100 100 100 98 99 99 98 96 98 98 71 75 76 85 84 88 86 85 93 87 92 90 96 96 98 97 96 97 97 97 97 97 97 97 96 97 97 97 97 97 97
98 98 98 98 100 100 99 99 99 99 100 100 98 99 100 97 95 97 98 94 95 91 98 97 98 97 96 97 96 97 96 96 96 97 97 97 97 96 96 96 96 96 97
98 98 98 98 97 99 98 98 98 99 99 98 99 98 98 98 97 98 98 97 96 96 98 98 97 96 96 96 96 96 96 96 96 96 96 96 98 96 97 97 97 98 98
96 98 99 99 99 99 99 98 98 98 97 95 97 97 97 98 96 95 94 94 95 96 97 96 94 99 97 100 97 97 97 98 97 97 96 97 97 97 96 97 96 96 96
99 100 99 97 65 53 47 39 33 26 21 21 24 26 30 28 26 23 22 24 26 26 25 27 22 21 24 46 33 32 51 72 62 70 78 90 89 95 95 89 97 97 97
62 51 42 36 28 20 15 12 9 7 6 6 6 6 7 8 8 8 8 8 8 7 6 6 7 6 6 6 5 5 6 7 8 9 14 16 18 31 40 67 96 98 87
17 14 12 9 7 7 8 9 11 13 13 14 13 11 10 11 12 14 14 14 13 12 11 10 9 8 8 7 7 7 7 7 7 7 7 7 7 7 8 11 18 24 51
10 9 10 12 14 16 15 14 15 15 16 17 18 18 18 18 19 19 18 16 14 13 12 11 11 10 9 9 8 9 9 9 10 10 10 9 10 10 9 8 8 8 15
15 16 15 14 13 13 14 14 14 13 13 14 14 16 17 18 18 18 18 18 17 16 15 13 12 12 11 10 11 11 11 10 10 11 11 10 10 10 10 11 10 10 11
14 14 14 14 14 13 12 12 12 12 12 12 13 15 16 17 17 17 17 16 17 18 17 17 16 16 15 13 12 11 10 10 10 9 9 9 9 8 8 7 6 7 10
14 14 14 14 14 14 15 16 17 18 19 19 20 21 22 25 26 28 27 26 26 26 26 21 20 20 19 15 15 14 12 11 11 11 10 8 7 6 5 5 4 4 4
19 20 20 21 22 22 24 25 26 28 29 30 30 30 30 31 33 36 40 45 47 48 42 38 33 32 26 25 24 23 21 16 12 9 7 5 4 2 2 3 3 3 4
21 21 22 22 23 24 25 25 26 26 27 27 27 28 30 32 36 43 53 58 63 61 59 53 50 44 41 41 40 36 26 18 12 8 5 2 2 2 2 5 10 10 30
32 34 37 40 44 46 47 46 44 42 40 39 38 39 43 51 66 75 77 74 67 62 63 59 56 55 53 50 43 30 16 8 5 2 2 2 4 7 9 9 11 13 17
72 82 90 88 86 84 83 83 87 89 90 92 92 96 98 94 89 81 77 76 73 67 64 62 64 54 33 15 8 4 3 3 3 4 4 6 14 28 30 30 17 15 15
97 96 92 81 71 62 57 55 61 71 78 85 90 94 97 96 96 90 85 79 75 71 71 63 42 17 5 3 4 6 8 9 8 9 11 21 32 43 45 42 37 22 16
78 68 58 57 61 68 68 68 73 79 81 85 89 94 98 99 98 100 99 93 85 65 39 11 6 3 3 8 12 16 17 16 17 22 22 35 38 46 47 40 36 32 17
44 49 66 79 78 78 76 74 69 64 72 84 91 97 98 99 96 90 88 49 27 7 4 4 4 6 9 13 24 25 21 22 25 27 31 36 36 53 55 45 39 34 20

GFSMW_500_rhum_102.txt.gz
RH
7 7 8 8 9 9 10 14 12 10 11 11 8 9 17 15 12 9 42 58 41 36 38 34 32 30 27 24 20 13 9 9 11 10 9 9 10 29 75 98 97 91 97
25 18 15 12 11 8 6 6 9 10 9 10 10 14 20 18 14 10 10 42 59 44 37 35 32 30 30 30 28 20 10 9 9 11 12 9 9 9 29 80 94 94 96
42 31 24 20 16 14 11 9 9 9 8 8 10 19 20 16 12 12 11 17 50 57 46 38 36 36 37 36 30 19 9 8 9 11 18 17 14 11 20 68 93 97 96
64 98 95 95 74 26 21 20 59 45 70 53 16 13 14 13 13 12 17 21 45 57 54 49 46 43 38 32 20 13 9 10 12 20 46 43 32 19 24 44 89 92 94
74 93 99 100 100 82 50 68 88 100 100 100 35 28 18 18 14 15 22 41 54 56 53 50 48 44 39 30 24 17 15 17 15 22 61 72 67 57 61 72 75 93 96
77 92 99 100 100 99 78 100 100 100 100 100 75 38 21 19 24 34 38 43 45 48 47 45 42 40 39 34 22 17 16 19 23 46 96 95 98 91 89 98 97 96 96
82 86 87 78 81 85 61 62 69 72 62 36 24 23 34 45 56 55 45 34 34 34 35 31 27 25 25 33 38 31 36 42 61 96 97 94 98 98 96 94 98 96 97
97 100 100 100 100 94 77 49 38 36 32 30 31 47 97 98 99 94 94 78 48 61 88 88 87 97 53 74 88 99 86 79 98 100 96 97 97 98 100 96 97 97 96
92 91 95 94 96 100 100 98 97 94 83 68 69 84 98 94 97 96 76 93 81 88 96 98 99 99 98 94 92 96 98 98 98 100 94 93 96 96 96 97 96 96 95
84 85 91 88 98 100 99 100 100 100 99 99 97 85 84 83 80 92 98 98 99 100 100 98 98 97 98 97 97 97 96 96 97 95 96 95 97 97 96 96 96 96 97
97 97 97 96 96 99 99 97 98 98 99 99 99 99 98 98 98 97 98 98 98 100 100 97 97 98 98 97 97 98 97 98 96 97 96 97 97 96 98 98 98 98 97
95 96 100 99 98 99 99 99 99 98 98 98 98 98 97 97 97 98 97 95 95 97 96 97 99 98 97 97 97 97 97 95 99 96 97 97 97 97 97 97 97 97 96
62 64 61 39 33 31 31 30 29 26 22 20 21 26 30 15 15 12 11 9 10 9 9 13 15 27 22 16 13 12 39 26 20 28 55 78 94 94 99 98 96 98 98
39 34 28 25 21 15 11 9 8 7 7 8 9 9 9 10 11 11 10 10 11 10 9 8 8 8 7 7 6 6 7 7 7 8 8 8 8 10 11 10 14 21 26
13 11 9 8 9 10 12 14 15 15 13 11 10 10 11 12 13 13 13 13 12 12 12 12 11 11 10 10 9 9 9 9 8 9 9 9 9 9 9 10 10 9 9
12 13 14 16 17 17 16 14 14 14 15 16 17 17 18 19 19 19 19 18 18 19 18 18 18 18 17 17 16 16 15 14 12 12 10 10 11 10 10 10 11 11 10
15 14 14 14 13 14 14 14 15 15 16 16 16 16 16 17 17 18 18 19 21 24 27 29 30 30 28 28 25 22 20 21 21 20 19 18 16 15 14 14 13 12 12
15 15 16 16 17 18 19 20 21 22 23 24 26 27 28 29 31 32 33 34 34 34 34 35 36 40 42 41 42 40 39 35 34 33 34 32 33 31 27 22 19 16 14
18 19 19 20 20 21 21 22 23 24 25 26 27 27 28 28 29 29 30 30 31 32 32 34 38 46 56 65 63 60 58 55 51 50 47 41 38 35 35 31 30 30 26
23 24 26 28 30 34 43 58 70 78 82 82 81 78 77 77 76 75 76 75 72 75 75 78 80 77 72 75 69 62 54 55 52 55 53 47 43 40 38 36 34 30 31
39 44 49 59 75 90 89 82 75 66 57 55 56 58 58 57 56 59 62 64 66 66 71 79 87 83 77 72 72 67 62 58 53 52 53 50 46 42 39 38 36 33 31
72 85 95 98 83 69 59 49 50 62 66 64 59 56 54 52 55 58 60 64 68 77 83 85 86 89 88 84 80 75 69 64 58 56 52 47 36 27 24 23 19 13 10
78 68 57 51 41 44 63 73 69 52 38 39 46 48 44 43 53 54 58 63 69 73 80 88 91 89 90 84 76 68 60 49 39 30 21 13 6 4 4 3 3 4 4
45 41 40 48 67 67 58 48 40 39 40 37 35 37 49 61 60 64 69 72 79 82 84 82 79 69 52 35 23 14 7 5 3 3 4 4 4 7 11 14 16 12 10
48 53 68 73 62 41 28 22 19 19 23 20 23 46 68 75 78 83 84 81 76 64 49 27 13 6 4 5 5 5 6 7 7 8 10 13 20 24 22 21 20 16 25
68 53 34 26 23 26 32 44 48 46 36 24 36 60 77 85 81 79 78 57 28 7 4 4 4 4 5 6 7 7 7 7 10 12 18 45 81 88 54 29 22 22 32

GFSMW_500_rhum_108.txt.gz
RH
13 12 12 11 10 9 8 8 9 10 12 13 14 15 15 17 21 32 39 54 62 69 60 11 7 6 6 5 6 6 17 54 49 42 68 60 35 32 31 22 15 13 14
14 11 8 9 10 9 10 14 13 12 9 7 8 9 11 11 12 22 38 44 55 56 58 39 12 8 8 9 9 8 7 6 44 52 43 43 60 38 34 30 25 22 16
25 13 12 15 23 28 27 27 22 16 14 9 8 8 9 12 25 33 32 41 56 56 60 41 30 12 10 7 8 11 9 7 8 38 52 44 40 35 34 32 31 31 28
32 14 21 26 30 30 36 48 59 50 21 18 20 32 65 90 89 77 75 84 78 67 62 45 24 15 10 8 11 14 11 7 6 22 55 51 43 41 38 36 36 31 29
33 25 36 45 56 64 65 40 36 32 37 37 79 67 83 86 100 100 100 100 100 92 66 44 21 12 8 10 16 13 9 8 8 26 56 58 64 56 49 44 43 36 18
49 57 58 66 78 78 80 42 38 64 82 90 100 97 98 100 100 90 90 92 68 59 51 24 16 11 14 15 14 11 8 10 18 45 65 75 84 87 66 46 41 34 30
51 51 65 72 80 93 72 82 50 59 72 87 91 99 96 100 93 100 100 87 73 70 61 28 14 12 13 14 11 17 19 38 48 62 75 81 82 73 61 44 49 94 40
57 60 63 77 86 93 66 68 86 96 94 96 85 84 86 93 95 80 68 78 68 52 33 29 33 35 52 54 82 96 44 43 52 55 62 49 42 42 87 86 92 85 88
65 69 71 71 82 88 77 64 80 96 98 100 96 53 56 62 68 74 79 100 100 94 93 96 99 98 92 89 96 96 64 93 88 60 79 69 60 68 92 96 96 100 96
54 55 63 70 73 70 70 79 83 87 89 98 99 98 100 98 99 97 96 98 98 98 96 96 98 98 99 99 96 92 98 99 98 97 100 97 97 85 90 99 99 98 98
46 45 38 34 28 24 31 47 76 76 36 92 92 96 97 96 96 95 94 97 98 97 98 98 98 98 98 97 98 94 99 98 98 97 97 97 98 97 98 98 98 98 97
17 22 16 11 11 9 9 10 11 11 11 11 11 13 16 47 90 47 21 21 15 17 18 17 16 12 12 70 96 97 100 99 99 98 98 98 98 98 97 98 97 97 97
10 9 9 10 12 13 14 15 16 17 18 17 17 17 17 17 18 19 19 19 19 20 20 19 18 18 17 17 15 15 31 54 58 92 85 84 56 88 95 95 88 95 98
12 14 13 13 13 13 13 12 12 12 12 12 13 14 14 14 15 16 16 17 17 18 18 18 19 20 20 21 19 19 19 19 18 16 26 16 17 13 10 14 20 18 52
12 12 12 13 13 14 15 16 18 19 20 21 22 22 22 23 23 24 25 25 26 26 27 28 28 29 30 30 32 32 32 31 29 27 23 22 20 19 18 16 13 12 12
16 17 17 18 18 19 20 22 23 24 25 30 39 52 65 74 77 76 74 70 68 67 64 62 58 56 49 44 38 32 29 30 30 33 36 38 38 38 38 33 28 24 23
18 19 20 21 24 29 33 39 49 61 68 79 84 78 62 53 51 53 57 58 57 56 54 57 58 61 63 63 64 65 65 68 67 61 53 41 35 34 34 36 40 44 48
20 21 29 38 48 53 63 74 86 92 70 49 48 47 36 27 26 26 27 29 31 34 32 29 21 14 13 18 24 30 39 53 63 66 67 70 76 77 74 68 55 47 46
51 65 81 80 77 73 57 52 46 43 37 24 21 25 35 36 30 26 23 22 23 27 26 27 32 32 15 14 16 18 17 17 20 21 25 25 27 33 40 44 58 68 76
32 34 34 35 38 40 36 30 24 24 28 39 40 36 26 24 21 20 18 15 15 21 18 19 21 22 21 24 28 37 34 43 42 46 48 47 41 38 38 39 38 34 52
21 27 33 37 30 26 28 31 35 38 37 35 34 33 31 29 27 26 22 21 22 20 18 18 30 43 59 69 68 68 67 61 59 60 60 61 60 57 56 57 58 63 65
22 27 29 27 26 31 35 36 36 34 37 38 39 37 35 30 29 27 28 24 15 15 28 55 74 82 82 75 67 59 50 42 42 41 39 39 37 36 37 37 35 37 44
23 24 25 27 31 38 42 43 40 40 39 38 37 36 34 32 31 27 22 17 20 44 67 72 68 48 22 10 9 8 8 7 6 6 5 5 5 5 5 5 5 6 6
26 27 31 35 39 41 47 51 55 46 38 38 34 33 28 29 30 24 18 25 53 68 65 42 17 9 10 12 17 17 15 13 11 10 9 8 7 7 7 6 6 6 6
31 32 36 41 45 49 53 56 50 43 39 38 32 29 27 31 27 22 29 60 69 56 23 9 9 13 20 25 25 25 22 16 11 9 10 10 10 8 8 8 8 8 8
36 40 43 44 48 54 53 50 49 48 42 39 33 30 34 30 25 36 69 76 46 12 10 13 17 21 26 28 36 40 32 18 12 11 19 27 32 28 21 18 20 24 22

GFSMW_500_rhum_111.txt.gz
RH
24 20 14 12 11 9 9 8 7 7 8 7 7 7 8 11 15 16 18 20 42 44 61 59 65 87 73 65 53 27 9 7 6 5 5 5 6 22 42 40 47 72 50
10 8 7 7 10 12 11 10 10 10 9 8 9 11 11 12 12 12 12 14 53 62 72 83 86 94 93 90 73 41 15 10 10 8 7 6 6 6 10 35 46 47 68
9 18 22 18 20 10 8 10 10 10 11 11 12 11 11 11 10 9 11 12 13 58 97 100 95 100 98 94 78 62 25 14 10 9 10 7 6 7 7 12 32 46 46
23 25 22 26 18 19 26 35 24 16 15 13 12 12 13 14 22 39 50 82 85 62 61 99 99 98 97 85 71 62 42 24 12 9 9 11 8 8 7 7 16 37 47
37 31 38 36 45 43 40 50 26 23 19 23 38 47 55 65 50 90 94 99 92 98 97 90 79 82 64 70 74 60 48 29 14 7 8 13 14 11 9 8 10 39 49
48 49 42 50 51 44 41 47 42 50 65 78 52 68 89 86 99 100 100 100 99 99 99 99 99 90 98 82 67 54 45 25 11 10 14 16 14 11 9 8 17 49 59
32 40 45 49 56 52 44 45 60 66 78 82 56 57 73 72 68 78 93 88 72 76 77 78 76 73 64 52 43 40 36 20 15 13 12 11 10 15 43 37 41 65 73
48 47 47 51 52 56 54 52 63 70 76 74 78 54 48 69 73 65 54 60 59 62 50 46 47 52 62 51 38 32 32 30 32 32 46 62 44 55 59 79 57 95 70
52 52 49 46 44 51 57 56 43 23 68 83 82 83 85 84 90 88 56 41 62 88 98 96 64 93 98 99 99 96 88 92 85 94 100 60 97 95 81 78 88 93 62
42 39 33 27 20 17 22 9 8 9 12 12 19 34 74 94 100 100 100 97 97 95 96 99 99 99 99 99 98 98 98 98 98 92 90 66 97 97 90 81 86 87 57
9 8 10 8 9 10 12 12 13 13 13 14 14 14 14 13 19 47 21 20 38 47 53 43 68 64 45 41 38 28 76 98 96 94 88 90 98 98 98 98 98 98 98
9 10 11 10 10 11 12 13 12 13 14 15 16 17 17 17 17 18 19 20 20 20 20 20 19 20 20 20 18 18 17 16 17 70 96 95 98 98 98 98 98 98 98
11 11 11 12 12 13 13 14 15 17 18 19 21 22 22 23 24 24 24 25 25 24 24 24 23 23 22 21 21 21 22 22 22 21 18 20 62 53 85 96 97 96 98
15 15 16 17 18 18 18 19 20 21 25 31 37 43 50 61 72 75 74 72 68 65 63 60 59 58 59 53 42 33 30 29 26 23 23 24 24 22 20 35 42 29 46
16 16 18 20 21 22 26 32 37 45 59 68 79 84 76 58 42 38 40 38 35 32 31 31 30 29 30 32 37 49 62 67 64 48 32 30 32 32 28 25 24 22 17
19 20 21 21 24 30 42 50 58 69 77 75 49 37 36 32 24 22 23 28 31 30 30 26 24 25 27 31 35 34 28 24 35 57 62 68 66 49 35 32 35 36 29
43 42 35 45 60 62 60 54 54 37 33 32 34 27 23 26 29 36 33 27 24 25 23 21 21 22 22 23 22 22 25 32 32 25 18 40 52 58 64 70 71 51 37
21 29 42 34 34 29 28 30 28 28 27 26 27 31 36 35 33 33 31 28 25 23 23 23 23 24 23 20 17 16 16 18 22 28 25 26 35 39 38 45 63 82 84
17 20 24 26 29 25 24 23 24 28 30 31 30 29 33 36 32 28 24 23 25 22 26 26 23 20 16 15 16 19 22 32 44 49 55 51 57 66 68 58 46 55 56
14 14 15 18 19 19 21 24 28 32 34 39 39 39 34 31 30 27 21 20 18 23 24 22 18 15 20 38 56 64 65 68 69 69 67 68 74 73 75 70 56 49 70
17 18 17 18 21 24 27 29 34 38 43 49 48 48 42 35 29 29 18 19 23 22 20 18 22 47 59 62 48 30 19 14 11 10 9 8 10 12 18 27 43 51 63
18 20 21 22 24 27 31 35 39 43 49 48 45 43 46 33 27 24 24 25 23 21 19 26 56 63 41 18 9 9 12 14 15 15 14 11 10 9 7 6 5 6 13
22 23 25 27 29 32 35 40 44 50 54 58 58 51 43 33 24 26 26 26 23 21 25 51 60 23 9 11 14 20 27 34 31 27 23 21 17 14 11 9 8 7 6
25 27 29 31 34 38 41 46 50 56 62 66 66 55 43 33 31 29 26 26 24 24 43 59 26 10 14 19 33 45 49 56 47 31 29 27 20 12 7 7 8 7 7
28 28 30 33 38 41 43 51 58 66 75 74 66 56 42 44 38 28 30 28 25 37 60 31 10 12 19 33 47 56 55 61 49 38 40 29 19 12 16 24 29 31 25
25 26 32 41 43 47 57 65 70 88 95 68 60 49 53 53 33 32 33 28 34 63 37 10 12 17 32 46 63 67 70 67 54 56 41 31 22 24 43 49 50 54 52

GFSMW_500_rhum_114.txt.gz
RH
39 29 23 18 15 13 11 8 8 10 9 8 7 7 7 8 8 8 8 9 11 16 20 23 52 74 72 89 100 92 86 76 75 58 34 16 11 6 6 6 8 9 25
21 16 13 9 7 7 9 14 13 11 14 17 16 15 14 12 11 9 8 8 10 13 14 14 24 58 94 87 92 98 97 90 84 77 70 57 33 9 8 7 6 5 5
9 8 8 9 12 14 16 17 20 18 21 24 26 21 18 13 11 11 12 12 16 20 24 38 48 28 39 96 100 96 96 95 95 100 91 67 47 25 13 10 8 7 6
11 18 22 19 24 28 22 30 30 32 33 33 34 34 19 20 37 34 24 23 24 35 62 44 82 86 93 96 98 97 98 97 98 99 96 85 61 43 34 16 11 9 8
34 30 31 38 34 31 34 36 29 31 39 42 38 29 18 36 62 63 63 100 89 90 79 57 63 97 100 97 98 98 98 98 97 93 86 79 67 53 43 32 16 10 9
30 30 26 26 37 44 46 41 34 40 50 49 46 39 25 33 52 65 63 79 95 95 100 88 76 90 88 89 95 94 81 84 75 76 72 67 60 57 50 29 17 12 10
36 37 36 41 46 46 45 51 45 44 52 57 58 58 46 37 42 57 57 61 63 68 66 66 90 85 84 92 90 68 63 73 69 74 65 54 48 44 31 17 12 11 8
43 44 44 44 40 34 33 41 18 8 51 45 47 65 72 72 79 77 51 47 56 45 39 42 35 24 34 40 40 43 44 46 41 33 28 30 38 31 22 17 17 13 19
32 35 37 34 26 15 8 6 8 9 10 10 9 10 12 34 71 80 86 86 71 73 78 81 86 88 85 73 81 87 98 98 98 96 99 93 77 85 77 88 88 56 51
9 10 14 10 7 8 9 9 9 9 9 10 11 11 12 13 14 32 19 16 24 43 57 70 60 66 85 80 88 88 86 91 96 82 94 98 99 99 93 98 94 71 91
6 7 8 8 9 9 9 9 10 11 13 16 18 21 22 23 23 22 21 20 19 19 19 20 20 20 21 20 20 21 21 21 19 18 18 21 29 94 99 99 87 91 95
9 10 11 12 13 13 14 16 18 18 19 20 26 32 37 40 47 64 71 71 69 66 64 61 58 53 50 45 42 37 32 27 23 22 23 24 25 23 35 87 90 99 98
14 15 16 16 17 17 18 20 23 27 31 38 49 57 65 64 55 49 45 38 35 33 28 26 26 27 27 29 34 36 44 52 54 54 49 34 28 24 24 24 23 52 96
16 16 17 18 19 20 22 27 34 42 47 56 64 67 46 38 38 34 30 27 24 24 27 29 28 28 27 24 25 26 27 24 25 29 30 36 50 56 43 31 28 24 24
30 30 27 24 20 22 46 59 59 58 54 44 38 41 35 31 27 24 26 28 30 32 31 28 26 26 26 24 24 23 24 24 23 21 20 25 33 33 31 50 59 48 32
17 19 27 37 45 47 44 47 36 24 23 24 26 25 25 25 29 32 32 36 35 31 26 20 16 11 10 10 9 10 12 14 18 18 20 21 20 19 27 33 29 36 63
13 14 16 18 18 19 23 25 24 18 21 24 27 29 32 37 41 41 43 40 33 27 19 12 14 13 12 11 11 14 16 16 15 15 15 17 17 17 20 24 26 29 26
12 12 14 16 17 19 21 26 22 19 25 29 33 36 41 44 46 47 42 32 26 21 17 21 20 16 14 14 16 16 15 19 36 52 59 62 67 65 57 39 40 46 45
12 12 12 12 15 18 21 24 24 28 30 32 34 39 44 48 48 46 38 28 22 28 40 39 23 17 18 18 17 18 33 53 50 31 19 16 14 14 16 24 38 52 66
16 15 15 16 17 18 19 22 23 26 29 34 39 43 47 53 57 56 42 31 25 38 57 33 19 19 21 19 24 39 51 23 11 9 11 13 13 15 15 14 11 9 10
13 16 19 18 18 21 23 24 27 31 36 40 44 49 55 63 66 56 47 37 32 59 42 26 23 21 20 28 48 30 10 9 15 21 22 24 25 25 22 17 13 10 7
17 14 16 22 21 23 26 29 32 35 38 42 46 55 65 81 88 59 50 43 64 59 33 30 26 23 36 49 19 10 18 30 29 28 28 29 32 37 36 32 27 19 15
15 18 15 19 24 25 27 29 33 38 41 44 55 71 84 95 76 59 49 59 67 46 34 28 28 47 49 13 12 22 36 40 28 19 18 22 38 45 42 34 25 22 17
14 21 22 21 22 24 26 26 33 42 49 63 90 96 98 94 63 52 55 70 67 41 32 27 40 52 14 14 29 48 55 36 18 24 52 72 63 48 29 30 30 22 14
13 17 22 24 24 22 23 32 43 69 79 91 98 100 99 80 67 72 70 76 57 40 28 33 55 23 13 24 41 46 21 17 15 23 39 59 55 36 32 35 32 20 23
12 15 18 20 23 26 32 38 52 81 97 98 99 100 98 95 93 73 75 72 50 32 27 46 46 12 19 32 44 29 22 24 28 25 25 36 36 32 36 38 34 30 50